Regional Weather Roundup
Issued by NWS

Home | Current Version | Previous Version | Text Only | Print | Product List | Glossary On
Versions: 1 2 3 4 5 6 7 8 9 10 11 12 13 14 15 16 17 18 19 20 21 22 23 24 25 26 27 28 29 30 31 32 33 34 35 36 37 38 39 40 41 42 43 44 45 46 47 48 49 50
000
ASUS45 KBOU 021607
RWRCO

WEATHER ROUNDUP FOR COLORADO
NATIONAL WEATHER SERVICE DENVER/BOULDER CO
1000 AM MDT WED SEP 02 2015

NOTE: "FAIR" INDICATES FEW OR NO CLOUDS BELOW 12000 FEET WITH NO
SIGNIFICANT WEATHER AND/OR OBSTRUCTIONS TO VISIBILITY.

COZ001>005-013-030-031-021700-
...NORTHWEST COLORADO...

CITY           SKY/WX    TMP DP  RH WIND       PRES   REMARKS
CRAIG          SUNNY     71  45  39 E12       30.24S
HAYDEN         NOT AVBL
MEEKER         SUNNY     65  47  52 CALM      30.25F
MOUNT WERNER   NOT AVBL
STEAMBOAT SPGS SUNNY     60  44  54 CALM      30.29S
WALDEN         SUNNY     61  41  48 S6        30.35F
$$

COZ006>008-011-021700-
...WEST CENTRAL VALLEYS...

CITY           SKY/WX    TMP DP  RH WIND       PRES   REMARKS
GRAND JUNCTION SUNNY     72  49  44 SE9       30.17S
MONTROSE       SUNNY     70  49  47 NW3       30.25F
EAGLE          MOSUNNY   55  48  76 CALM      30.35F
RIFLE          SUNNY     63  51  65 CALM      30.24F
DELTA          SUNNY     72  49  43 NE3       30.22F HAZE
NUCLA          SUNNY     70  45  40 CALM      30.28F
$$

COZ017>023-064>068-021700-
...SOUTHWEST COLORADO...

CITY           SKY/WX    TMP DP  RH WIND       PRES   REMARKS
DURANGO        SUNNY     69  45  41 VRB3      30.31S
CORTEZ         PTSUNNY   73  49  42 CALM      30.25S
PAGOSA SPRINGS SUNNY     67  44  43 CALM      30.38F
TELLURIDE      MOSUNNY   63  48  57 CALM      30.47S
WOLF CREEK PAS NOT AVBL
$$

COZ009-010-012-014-032>034-037-058>063-021700-
...CENTRAL COLORADO...

CITY           SKY/WX    TMP DP  RH WIND       PRES   REMARKS
ASPEN          SUNNY     59  47  64 N3        30.36S
BUENA VISTA    MOSUNNY   61  44  54 NW7       30.38S
COPPER MTN     MOSUNNY   52  39  62 W9        30.64S
BERTHOUD PASS  FAIR      43  32  65 MISG      30.66R
COTTONWOOD PAS MOSUNNY   61  43  51 CALM      30.49S
GUNNISON       MOSUNNY   54  45  71 CALM      30.44F
KREMMLING      SUNNY     54  43  66 W3        30.38F
LEADVILLE      MOSUNNY   50  48  93 CALM      30.49S
MONARCH PASS   SUNNY     46  39  76 W14G24    30.74S
SALIDA         MOSUNNY   63  47  55 CALM      30.43F
SUNLIGHT       MOSUNNY   57  46  67 CALM      30.58S
WILKERSON PASS PTSUNNY   52  34  50 W6        30.61R
$$

COZ069>075-021700-
...SAN LUIS VALLEY/SANGRE DE CRISTO MOUNTAINS...

CITY           SKY/WX    TMP DP  RH WIND       PRES   REMARKS
ALAMOSA        SUNNY     64  46  52 CALM      30.37S
LA VETA PASS   MOSUNNY   61  41  48 S8        30.52S
SAGUACHE       SUNNY     64  46  52 S6        30.40S
$$

COZ035-036-038>040-021700-
...NORTHERN COLORADO FRONT RANGE...

CITY           SKY/WX    TMP DP  RH WIND       PRES   REMARKS
DENVER INTL AP PTSUNNY   80  39  23 CALM      30.13R
DMNS CITY PARK   N/A     78  46  32 SW1G9     30.12F
AURORA         PTSUNNY   77  41  27 W3        30.15S
FRONT RANGE AP NOT AVBL
ERIE MUNI ARPT MOSUNNY   82  38  20 E6        30.10S
BOULDER MUN AP MOSUNNY   81  45  28 E6        30.11R
CENTENNIAL     PTSUNNY   76  41  28 CALM      30.16S
BROOMFIELD     PTSUNNY   81  39  22 SE6       30.15R
FORT COLLINS   SUNNY     77  45  31 S6        30.10S
LONGMONT       SUNNY     82  47  29 SE5       30.11S
$$

COZ041-046-047-076>085-087-088-021700-
...PIKES PEAK/PALMER DIVIDE AND SOUTHERN FOOTHILLS...

CITY           SKY/WX    TMP DP  RH WIND       PRES   REMARKS
COLO. SPRINGS  PTSUNNY   77  46  33 W12       30.20S
A. F. ACADEMY  PTSUNNY   74  40  29 SE3       30.21S
ELLICOTT       PTSUNNY  N/A N/A N/A N13       30.18R
FALCON         PTSUNNY   74  41  30 MISG      30.26R
FORT CARSON    PTSUNNY   76  47  36 SW3       30.16S
LIMON          PTSUNNY   78  44  29 N13       30.13R
MONUMENT HILL  MOSUNNY   73  37  27 NW8       30.26S
TRINIDAD       SUNNY     82  46  28 S9        30.18S
$$

COZ042>045-048>051-090-091-021700-
...NORTHEAST COLORADO...

CITY           SKY/WX    TMP DP  RH WIND       PRES   REMARKS
GREELEY ARPT   SUNNY     77  46  33 S5        30.09S
AKRON          SUNNY     82  43  25 NW13      30.07R
BURLINGTON     MOSUNNY   85  47  26 N6        30.04R
WRAY           CLOUDY    84  48  27 CALM      29.99S
STERLING       NOT AVBL
HOLYOKE        SUNNY     86  45  23 N5        29.99S
FORT MORGAN    SUNNY     78  45  30 W7        30.07S
$$

COZ086-089-092>099-021700-
...SOUTHEAST COLORADO...

CITY           SKY/WX    TMP DP  RH WIND       PRES   REMARKS
PUEBLO         PTSUNNY   79  47  32 W10       30.09S
LA JUNTA       SUNNY     85  49  28 VRB5      30.06R
LAMAR          SUNNY     82  53  36 W13       30.00F
SPRINGFIELD      N/A     88  47  24 W12       30.06S
$$



USA.gov is the U.S. government's official web portal to all federal, state and local government web resources and services.